Texas Shootout - 2ND RACE

Station: HEDLEY - A Race

Distance: 209 Miles    

Release: 13-Jan-2018 08:30

Weather Release: MOSTLY SUNNY    Arrival: CLEAR

Wind at Release: CALM     Wind at Arrival: NNE 10-15

Temp at Release: 21°    Temp at Arrival: 40°

Lofts: 174

Birds: 719

Clocked: 681

HAULER SAID THEY WERE GONE OUT OF SITE GOOD LUCK
Drops Pos Breeder Pigeon Name Color Sex Ent Arrival Speed To Win Eligible
401 Tex-Mex Loft - TX 0688-AU17-NSL Little Romeo BC C 6 13:32:10.24 1217.325 00:52:30 Yes
402 Holleys Silver Star - TX 0938-AU17-DEN BC H 7 13:32:10.60 1217.301 00:52:31 Yes
403 Wartick Loft - KS 0248-AU17-AIR BB H 4 13:32:11.57 1217.236 00:52:32 Yes
404 New Orleans Boys 2 - LA 0343-AU17-MET DC H 4 13:32:12.77 1217.155 00:52:33 Yes
405 Medina Loft - TX 0176-AU17-MDNA MLY H 3 13:32:19.30 1216.717 00:52:39 Yes
406 T & T Lofts - TX 2220-AU17-TEX BBWF H 2 13:32:28.97 1216.069 00:52:49 Yes
407 Taj Syndicate - TX 11826-AU17-GHC BC C 3 13:32:29.74 1216.017 00:52:50 Yes
408 Elton Dinga - TX 12141-AU17-AA Klaas 1227 x 715 WorldAce SIL H 24 13:32:30.58 1215.961 00:52:51 Yes
409 Utaz Team - UT 0825-AU17-PSC BCWF H 3 13:32:33.07 1215.794 00:52:53 Yes
410 West Wing Syndicate - TX 30470-AU17-JEDD BB H 2 13:32:37.24 1215.515 00:52:57 Yes
411 Sandstrom Brothers Loft - MN 0814-AU17-SBL BCPD H 3 13:32:41.24 1215.247 00:53:01 Yes
412 Holleys Silver Star - TX 0942-AU17-DEN SIL H 8 13:32:41.88 1215.205 00:53:02 Yes
413 Shallow Pockets - TX 0080-AU17-SHAL BC H 3 13:32:43.66 1215.086 00:53:04 Yes
414 Racing Pigeon Mall - WA 0705-AU17-RPM BC H 3 13:32:44.80 1215.009 00:53:05 Yes
415 Shallow Pockets - TX 0084-AU17-SHAL RC C 4 13:32:54.53 1214.359 00:53:15 Yes
416 Rodriquez & Aubone - TX 1756-AU17-TEJA BB H 5 13:33:01.03 1213.925 00:53:21 Yes
417 Marengo Creek Farms - AL 2755-AU17-MCF BB H 6 13:33:03.07 1213.788 00:53:23 Yes
418 A P C Loft - TX 17328-AU17-APC BB H 4 13:33:08.36 1213.435 00:53:28 Yes
419 Apollo Loft 2 - IL 2986-AU17-APLO BC C 2 13:33:09.11 1213.385 00:53:29 Yes
420 Nesneb Racing Loft - AL 17091-AU17-NSNB PNCL C 2 13:33:11.63 1213.217 00:53:32 Yes
421 Hollywood Honey - CA 0087-AU17-SD BB H 2 13:33:13.28 1213.107 00:53:33 Yes
422 Sandstrom Brothers Loft - MN 0790-AU17-SBL BC H 4 13:33:13.47 1213.095 00:53:34 Yes
423 Marengo Creek Farms - AL 2756-AU17-MCF BBWF H 7 13:33:14.72 1213.011 00:53:35 Yes
424 K & R Loft - TX 2937-AU17-TX DC C 2 13:33:15.05 1212.989 00:53:35 Yes
425 John Coker - TX 34091-AU17-AA BC C 3 13:33:16.19 1212.913 00:53:36 Yes
426 Hillbilly Loft - TX 17606-AU17-AA BB H 6 13:33:21.39 1212.567 00:53:41 Yes
427 Baptista - IL 0021-AU17-BAPT BBWF C 4 13:33:36.24 1211.578 00:53:56 Yes
428 Fleet Washington - DC 1780-AU17-FLTW BB C 3 13:33:42.78 1211.143 00:54:03 Yes
429 Spirit In The Sky - IL 0363-AU17-LCC BB H 2 13:33:45.32 1210.975 00:54:05 Yes
430 Tex-Mex Loft - TX 0627-AU17-NSL Lucky BB H 7 13:33:57.97 1210.135 00:54:18 Yes
431 Abel Loft - CA 7558-AU17-HAN BB H 3 13:34:04.52 1209.700 00:54:25 Yes
432 Baldwin / Tilson - NC 7123-AU17-TNTL BB H 1 13:34:06.68 1209.557 00:54:27 Yes
433 Cbs & Steve - OK 1850-AU17-CBS BB H 3 13:34:11.52 1209.236 00:54:32 Yes
434 Mike Hines - SD 7053-AU17-GPF BSPL C 1 13:34:25.82 1208.290 00:54:46 Yes
435 Bynum Family Lofts - TX 0231-AU17-BFL BBSP C 8 13:34:25.93 1208.282 00:54:46 Yes
436 Nesneb Racing Loft - AL 17104-AU17-MOB BB C 3 13:34:26.44 1208.249 00:54:47 Yes
437 Si Se Puede Loft - TX 7365-AU17-PDP BB H 1 13:36:03.16 1201.885 00:56:23 Yes
438 Chinese Union 2 - VA 5086-AU17-TONY BWFP C 1 13:37:26.46 1196.457 00:57:47 Yes
439 Si Se Puede Loft - TX 32202-AU17-AA DC H 2 13:37:32.25 1196.082 00:57:52 Yes
440 Spirit In The Sky - IL 0364-AU17-LCC BB H 3 13:37:34.05 1195.965 00:57:54 Yes
441 Kibria Rpl - TX 0070-AU17-DEN 141 + 4224 BC H 5 13:37:35.27 1195.886 00:57:55 Yes
442 A D L Loft - IL 0151-AU17-ADL BC H 6 13:37:36.43 1195.811 00:57:56 Yes
443 Robin & Brenda - TX 0345-AU17-WWC Oly BB C 2 13:37:36.49 1195.807 00:57:57 Yes
444 Circle T - TX 0970-AU17-OMHA BB C 2 13:37:36.52 1195.805 00:57:57 Yes
445 Neighbor Hood Bullies - TX 0757-AU17-WF BC H 4 13:37:36.57 1195.802 00:57:57 Yes
446 Highland Loft - NY 17084-AU17-DZ BC H 1 13:37:37.82 1195.721 00:57:58 Yes
447 Wind Chaser - MI 1688-AU17-GRM BC H 5 13:37:38.14 1195.700 00:57:58 Yes
448 Robin & Brenda - TX 0344-AU17-WWC Otto COWF H 3 13:37:41.32 1195.494 00:58:01 Yes
449 Tou Loft - TN 0039-AU17-TOU BB C 2 13:37:42.77 1195.400 00:58:03 Yes
450 Duffy's Loft - TX 9794-AU17-FOYS BC H 2 13:37:43.78 1195.335 00:58:04 Yes
451 Charlie Barbiere - NJ 1954-IF17-BSC BB H 2 13:37:43.89 1195.328 00:58:04 Yes
452 Southern Legacy Loft - TX 0428-AU17-SLL BB H 7 13:37:43.99 1195.321 00:58:04 Yes
453 English Syndicate - UK 12529-GB17-D BB H 4 13:37:44.75 1195.272 00:58:05 Yes
454 Elton Dinga - TX 12088-AU17-AA Jansen 24256 x Sablon BC H 25 13:37:45.10 1195.249 00:58:05 Yes
455 Frank Martinez - CA 8201-AU17-FORT BC H 1 13:37:46.33 1195.170 00:58:06 Yes
456 Y Mtn Loft - TN 0692-AU17-GUO BB H 4 13:37:47.13 1195.118 00:58:07 Yes
457 Rodriquez & Aubone - TX 1766-AU17-TEJA MLY C 6 13:37:48.69 1195.017 00:58:09 Yes
458 Bill Kluge - TX 1811-AU17-COLD BBWF C 3 13:37:49.30 1194.978 00:58:09 Yes
459 John Coker - TX 34092-AU17-AA BB H 4 13:37:49.89 1194.939 00:58:10 Yes
460 Anderson, Aycock & Louie - AZ 1777-AU17-SUNB BB C 2 13:37:50.53 1194.898 00:58:11 Yes
461 Abel Loft - CA 7575-AU17-HAN BB H 4 13:37:53.55 1194.703 00:58:14 Yes
462 Quest Syndicate/Any Given Day Loft - TX 17098-AU17-AGD BB H 5 13:38:07.07 1193.829 00:58:27 Yes
463 Liu Loft - NC 8896-AU17-LIU BCPD H 5 13:38:55.39 1190.717 00:59:15 Yes
464 Vick Corso - LA 1293-AU17-CRSO BC C 2 13:39:06.22 1190.021 00:59:26 Yes
465 Espo Loft - SC 0965-AU17-ESPO BB H 3 13:39:12.88 1189.594 00:59:33 Yes
466 A D L Loft - IL 0196-AU17-ADL BB H 7 13:39:47.82 1187.358 01:00:08 Yes
467 A D L Loft - IL 0175-AU17-ADL BB C 8 13:39:48.35 1187.324 01:00:08 Yes
468 Barry - Shawnie - MI 0954-AU17-OMAH BB C 2 13:39:58.66 1186.666 01:00:19 Yes
469 Rodriquez & Aubone - TX 1773-AU17-TEJA BB C 7 13:40:54.38 1183.122 01:01:14 Yes
470 Hugo Family Loft - IL 2277-MX17-ACEJ BB H 3 13:42:22.03 1177.589 01:02:42 Yes
471 Double B S Loft - CA 0601-AU17-AUB BC C 2 13:42:24.19 1177.453 01:02:44 Yes
472 Flying D Loft - TX 0187-AU17-FLYD BB H 6 13:42:25.80 1177.352 01:02:46 Yes
473 Flying D / Matt Mitchell - TX 0319-AU17-FLYD BWF H 2 13:42:26.78 1177.290 01:02:47 Yes
474 Frank Martinez - CA 0739-AU17-POCO DC H 2 13:42:30.10 1177.082 01:02:50 Yes
475 Holleys Silver Star - TX 0943-AU17-DEN SIL C 9 13:43:40.82 1172.659 01:04:01 Yes
476 Tex-Mex Loft - TX 0675-AU17-NSL Rebel BB C 8 13:44:27.30 1169.770 01:04:47 Yes
477 Perfection Loft - KS 3747-AU17-AA BB C 2 13:47:15.39 1159.440 01:07:35 Yes
478 Taj Syndicate - TX 11828-AU17-GHC BB H 4 13:47:18.30 1159.263 01:07:38 Yes
479 Elton Dinga - TX 12126-AU17-AA Hebberecht 74 x Diels 390 BC H 26 13:47:29.07 1158.608 01:07:49 Yes
480 Shallow Pockets - TX 0069-AU17-SHAL BB C 5 13:47:31.27 1158.474 01:07:51 Yes
481 Elton Dinga - TX 12072-AU17-AA Klaas 1008 x 303 Maxxi BB H 27 13:48:16.27 1155.744 01:08:36 Yes
482 Relax & Barger - CA 71958-AU17-MAN CWFP C 3 13:48:29.55 1154.941 01:08:50 Yes
483 Marengo Creek Farms - AL 2765-AU17-MCF BC H 8 13:49:45.33 1150.379 01:10:05 Yes
484 Shallow Pockets - TX 0064-AU17-SHAL BC H 6 13:49:48.49 1150.190 01:10:09 Yes
485 Dream Team - VT 0704-AU17-JCZL BBWF C 6 13:49:50.58 1150.064 01:10:11 Yes
486 Bieche Lofts - CA 7439-AU17-BCHE BB C 3 13:49:54.16 1149.850 01:10:14 Yes
487 Johnson/Mailhes - LA 0158-AU17-LAF BC H 2 13:49:56.57 1149.705 01:10:17 Yes
488 Bill Kluge - TX 1731-AU17-COLD BB C 4 13:49:57.85 1149.629 01:10:18 Yes
489 Quest Syndicate/Any Given Day Loft - TX 17111-AU17-AGD DC H 6 13:49:59.57 1149.526 01:10:20 Yes
490 Larry Payne - KS 0277-AU17-LPL BPWF C 4 13:49:59.80 1149.512 01:10:20 Yes
491 Johnson/Mailhes - LA 0162-AU17-LAF BC C 3 13:50:00.78 1149.453 01:10:21 Yes
492 Kim Wong - VT 10879-AU17-ARPU BC H 2 13:50:01.22 1149.427 01:10:21 Yes
493 Cuba Loft 2 - TX 36159-AU17-ARPU BC C 3 13:50:02.55 1149.347 01:10:23 Yes
494 Two-Be-Won - NV 17166-AU17-TBW BC H 2 13:50:04.58 1149.226 01:10:25 Yes
495 Abel Loft - CA 7551-AU17-HAN BC C 5 13:50:04.60 1149.225 01:10:25 Yes
496 Duffy's Loft - TX 9788-AU17-FOYS BC C 3 13:50:05.27 1149.185 01:10:25 Yes
497 Sandstrom Brothers Loft - MN 0808-AU17-SBL DCPD H 5 13:50:08.25 1149.006 01:10:28 Yes
498 Ledet-Gutrz - LA 17491-AU17-LG BC C 1 13:50:08.38 1148.999 01:10:28 Yes
499 Quest Syndicate/Any Given Day Loft - TX 17110-AU17-AGD BC H 7 13:50:09.44 1148.935 01:10:30 Yes
500 Hutchins Loft - TX 0079-AU17-HUCH BC H 4 13:50:10.18 1148.891 01:10:30 Yes

There are 984 bird records

Note: These Race Results are unofficial and subject to change until verified by the Race Committee and declared final.